• In Uzbekistan
  • List of Countries
  • For 7 days
  • Water Temperature
  • Weather Map
  • Weather Widgets
  • user-avatar
    Login

    Hourly Weather Sylhet

    Today, 25 February, Tuesday

    Time Temperature Precipitation Wind Pressure Humidity
    00:00 +21°C° 0 mm 1 mps 759 mmHg 61%
    01:00 +20°C° 0 mm 1 mps 758 mmHg 64%
    02:00 +20°C° 0 mm 1 mps 758 mmHg 66%
    03:00 +19°C° 0 mm 1 mps 758 mmHg 68%
    04:00 +19°C° 0 mm 1 mps 758 mmHg 71%
    05:00 +19°C° 0 mm 1 mps 758 mmHg 73%
    06:00 +18°C° 0 mm 1 mps 758 mmHg 85%
    07:00 +21°C° 0 mm 1 mps 759 mmHg 77%
    08:00 +23°C° 0 mm 1 mps 759 mmHg 68%
    09:00 +25°C° 0 mm 2 mps 759 mmHg 59%
    10:00 +27°C° 0 mm 2 mps 759 mmHg 54%
    11:00 +28°C° 0 mm 3 mps 759 mmHg 49%
    12:00 +30°C° 0 mm 3 mps 759 mmHg 44%
    13:00 +29°C° 0 mm 4 mps 758 mmHg 42%
    14:00 +28°C° 0 mm 5 mps 758 mmHg 41%
    15:00 +28°C° 0 mm 5 mps 757 mmHg 40%
    16:00 +26°C° 0 mm 4 mps 757 mmHg 44%
    17:00 +25°C° 0 mm 4 mps 757 mmHg 47%
    18:00 +24°C° 0 mm 3 mps 758 mmHg 51%
    19:00 +22°C° 0 mm 3 mps 758 mmHg 53%
    20:00 +23°C° 0 mm 2 mps 758 mmHg 55%
    21:00 +21°C° 0 mm 2 mps 759 mmHg 57%
    22:00 +22°C° 0 mm 1 mps 759 mmHg 59%
    23:00 +22°C° 0 mm 1 mps 759 mmHg 61%

    Tomorrow, 26 February, Wednesday

    Time Temperature Precipitation Wind Pressure Humidity
    00:00 +19°C° 0 mm 0 mps 759 mmHg 63%
    01:00 +21°C° 0 mm 1 mps 759 mmHg 65%
    02:00 +20°C° 0 mm 1 mps 758 mmHg 68%
    03:00 +19°C° 0 mm 2 mps 758 mmHg 71%
    04:00 +19°C° 0 mm 1 mps 758 mmHg 74%
    05:00 +19°C° 0 mm 1 mps 758 mmHg 77%
    06:00 +18°C° 0 mm 1 mps 759 mmHg 81%
    07:00 +19°C° 0.2 mm 1 mps 759 mmHg 78%
    08:00 +19°C° 0.2 mm 2 mps 760 mmHg 75%
    09:00 +21°C° 0.2 mm 2 mps 760 mmHg 72%
    10:00 +22°C° 0.4 mm 1 mps 760 mmHg 72%
    11:00 +23°C° 0.4 mm 1 mps 760 mmHg 71%
    12:00 +23°C° 0.4 mm 1 mps 760 mmHg 70%
    13:00 +25°C° 0.1 mm 1 mps 759 mmHg 62%
    14:00 +25°C° 0.1 mm 0 mps 758 mmHg 55%
    15:00 +27°C° 0.1 mm 0 mps 757 mmHg 47%
    16:00 +26°C° 1.6 mm 1 mps 757 mmHg 59%
    17:00 +24°C° 1.6 mm 1 mps 757 mmHg 71%
    18:00 +20°C° 1.6 mm 2 mps 757 mmHg 83%
    19:00 +19°C° 1 mm 2 mps 758 mmHg 86%
    20:00 +19°C° 1 mm 2 mps 758 mmHg 90%
    21:00 +19°C° 1 mm 1 mps 759 mmHg 93%
    22:00 +19°C° 0 mm 1 mps 759 mmHg 93%
    23:00 +19°C° 0 mm 1 mps 759 mmHg 94%

    Day after tomorrow, 27 February, Thursday

    Time Temperature Precipitation Wind Pressure Humidity
    00:00 +18°C° 0 mm 1 mps 759 mmHg 94%
    01:00 +18°C° 0 mm 1 mps 759 mmHg 95%
    02:00 +18°C° 0 mm 1 mps 759 mmHg 95%
    03:00 +16°C° 0 mm 1 mps 758 mmHg 95%
    04:00 +16°C° 0 mm 1 mps 758 mmHg 95%
    05:00 +16°C° 0 mm 2 mps 759 mmHg 96%
    06:00 +16°C° 0 mm 2 mps 759 mmHg 96%
    07:00 +18°C° 0 mm 2 mps 759 mmHg 89%
    08:00 +20°C° 0 mm 2 mps 760 mmHg 82%
    09:00 +21°C° 0 mm 2 mps 761 mmHg 75%
    10:00 +25°C° 0 mm 1 mps 760 mmHg 65%
    11:00 +27°C° 0 mm 1 mps 760 mmHg 54%
    12:00 +28°C° 0 mm 0 mps 759 mmHg 44%
    13:00 +30°C° 0 mm 1 mps 759 mmHg 42%
    14:00 +30°C° 0 mm 2 mps 758 mmHg 40%
    15:00 +30°C° 0 mm 2 mps 757 mmHg 38%
    16:00 +28°C° 0 mm 2 mps 757 mmHg 44%
    17:00 +26°C° 0 mm 2 mps 757 mmHg 49%
    18:00 +24°C° 0 mm 1 mps 757 mmHg 55%
    19:00 +23°C° 0 mm 1 mps 758 mmHg 57%
    20:00 +23°C° 0 mm 1 mps 759 mmHg 58%
    21:00 +20°C° 0 mm 0 mps 759 mmHg 60%
    22:00 +19°C° 0 mm 0 mps 759 mmHg 62%
    23:00 +21°C° 0 mm 1 mps 759 mmHg 63%

    28 February, Friday

    Time Temperature Precipitation Wind Pressure Humidity
    00:00 +20°C° 0 mm 1 mps 759 mmHg 65%
    01:00 +20°C° 0 mm 1 mps 759 mmHg 67%
    02:00 +19°C° 0 mm 2 mps 758 mmHg 69%
    03:00 +18°C° 0 mm 2 mps 758 mmHg 71%
    04:00 +18°C° 0 mm 2 mps 758 mmHg 73%
    05:00 +17°C° 0 mm 2 mps 758 mmHg 75%
    06:00 +17°C° 0 mm 2 mps 758 mmHg 76%
    07:00 +19°C° 0 mm 2 mps 758 mmHg 69%
    08:00 +21°C° 0 mm 2 mps 759 mmHg 62%
    09:00 +25°C° 0 mm 2 mps 759 mmHg 55%
    10:00 +27°C° 0 mm 2 mps 759 mmHg 48%
    11:00 +29°C° 0 mm 2 mps 758 mmHg 42%
    12:00 +31°C° 0 mm 2 mps 758 mmHg 35%
    13:00 +31°C° 0 mm 1 mps 757 mmHg 33%
    14:00 +32°C° 0 mm 1 mps 756 mmHg 31%
    15:00 +32°C° 0 mm 1 mps 756 mmHg 29%
    16:00 +30°C° 0 mm 1 mps 755 mmHg 35%
    17:00 +28°C° 0 mm 2 mps 755 mmHg 40%
    18:00 +26°C° 0 mm 2 mps 755 mmHg 46%
    19:00 +25°C° 0 mm 2 mps 756 mmHg 48%
    20:00 +24°C° 0 mm 2 mps 756 mmHg 50%
    21:00 +23°C° 0 mm 2 mps 757 mmHg 52%
    22:00 +22°C° 0 mm 1 mps 757 mmHg 54%
    23:00 +21°C° 0 mm 1 mps 757 mmHg 56%

    29 February, Saturday

    Time Temperature Precipitation Wind Pressure Humidity
    00:00 +21°C° 0 mm 1 mps 757 mmHg 57%
    01:00 +21°C° 0 mm 1 mps 756 mmHg 59%
    02:00 +20°C° 0 mm 1 mps 756 mmHg 60%
    03:00 +20°C° 0 mm 1 mps 755 mmHg 61%
    04:00 +19°C° 0 mm 1 mps 756 mmHg 64%
    05:00 +19°C° 0 mm 1 mps 756 mmHg 66%
    06:00 +18°C° 0 mm 2 mps 756 mmHg 68%
    07:00 +20°C° 0 mm 2 mps 756 mmHg 62%
    08:00 +23°C° 0 mm 2 mps 757 mmHg 56%
    09:00 +26°C° 0 mm 2 mps 757 mmHg 50%
    10:00 +28°C° 0 mm 1 mps 757 mmHg 44%
    11:00 +31°C° 0 mm 1 mps 756 mmHg 39%
    12:00 +31°C° 0 mm 0 mps 756 mmHg 33%
    13:00 +33°C° 0 mm 1 mps 755 mmHg 31%
    14:00 +33°C° 0 mm 1 mps 754 mmHg 30%
    15:00 +34°C° 0 mm 2 mps 754 mmHg 28%
    16:00 +31°C° 0 mm 2 mps 754 mmHg 34%
    17:00 +29°C° 0 mm 2 mps 754 mmHg 40%
    18:00 +26°C° 0 mm 2 mps 754 mmHg 45%
    19:00 +26°C° 0 mm 1 mps 755 mmHg 46%
    20:00 +25°C° 0 mm 1 mps 756 mmHg 48%
    21:00 +22°C° 0 mm 0 mps 756 mmHg 49%
    22:00 +21°C° 0 mm 0 mps 756 mmHg 51%
    23:00 +21°C° 0 mm 0 mps 756 mmHg 53%

    1 March, Sunday

    Time Temperature Precipitation Wind Pressure Humidity
    00:00 +20°C° 0 mm 0 mps 757 mmHg 55%
    01:00 +21°C° 0 mm 1 mps 756 mmHg 57%
    02:00 +21°C° 0 mm 1 mps 756 mmHg 59%
    03:00 +20°C° 0 mm 1 mps 756 mmHg 60%
    04:00 +20°C° 0 mm 1 mps 756 mmHg 62%
    05:00 +20°C° 0 mm 1 mps 756 mmHg 63%
    06:00 +19°C° 0 mm 1 mps 756 mmHg 64%
    07:00 +21°C° 0 mm 1 mps 757 mmHg 58%
    08:00 +24°C° 0 mm 1 mps 757 mmHg 53%
    09:00 +26°C° 0 mm 1 mps 758 mmHg 47%
    10:00 +28°C° 0 mm 1 mps 757 mmHg 42%
    11:00 +31°C° 0 mm 1 mps 757 mmHg 38%
    12:00 +31°C° 0 mm 0 mps 756 mmHg 33%
    13:00 +33°C° 0 mm 1 mps 756 mmHg 32%
    14:00 +34°C° 0 mm 2 mps 755 mmHg 30%
    15:00 +34°C° 0 mm 2 mps 754 mmHg 29%
    16:00 +31°C° 0 mm 2 mps 754 mmHg 35%
    17:00 +29°C° 0 mm 2 mps 754 mmHg 40%
    18:00 +27°C° 0 mm 1 mps 755 mmHg 46%
    19:00 +26°C° 0 mm 1 mps 755 mmHg 47%
    20:00 +23°C° 0 mm 0 mps 755 mmHg 48%
    21:00 +22°C° 0 mm 0 mps 756 mmHg 49%
    22:00 +22°C° 0 mm 0 mps 756 mmHg 50%
    23:00 +24°C° 0 mm 1 mps 756 mmHg 51%
    Show more